CZ-6A DEB, 56602

Orbit data source: Space-Track

CZ-6A DEB, 56602 is space debris in SSO originally from a launch on Fri, 11 Nov 2022 UTC launched from the Taiyaun Space Center, China (TSC). Debris objects in space refer to the collection of defunct objects orbiting the Earth. Examples of debris include non-operational satellites, rocket bodies, and fragments generated from explosions, collisions, or faulty payload assembly.

Loading next visibility...
Identifier
56602, 2022-151AEA
Orbit
SSO
Country
Flag of CNCN / PRC
Related business
Manufacturer
SAST
Mission
Spacecraft
Bus & Motor
Unknown
Mass
Unknown
Launch date (UTC)
2022-11-11 (3 years ago)
Launch vehicle
Unknown
Launch site
Taiyaun Space Center, China (TSC)
Object type
Payload
Rocket body
Debris
Shape & HBR
Unknown shape, 0.1 m
Radar Cross Section
Small (<0.1 m²)

Expand to show TLE details & history
Last TLE update: 11 hours ago

TLE from 11 hours ago
0 CZ-6A DEB
1 56602U 22151AEA 26130.52012035  .00004132  00000-0  14879-2 0  9991
2 56602  98.7793 151.2251 0029667   6.6778 353.4796 14.34015335166576
Epoch: 2026-05-10T12:28Z
TLE epoch observation values (Epoch: 2026-05-10T12:28:58.398Z)
Latitude
0.00004°
Longitude
95.65974°
Altitude
760.175 km
Speed
7.485 km/s
True Right ascension
10h 04m 54s
True Declination
0° 00' 00"
Sunlit
Object was in daylight at epoch
Visualization orbit readout
Latitude
Unknown
Longitude
Unknown
Altitude
Unknown
Speed
Unknown
Apparent Right ascension
Unknown
Apparent Declination
Unknown
Sunlit
N/A
Visualization observer readout
Local Sidereal Time
07:23:30
Azimuth
Unknown
Elevation
Unknown
Doppler factor
Unknown
Orbital elements
Apogee altitude
796.706 km
Perigee altitude
754.261 km
Semi-major axis
7,153.621 km
Eccentricity
0.00297
Inclination
98.7793°
RAAN
151.2251°
Arg. of periapsis
6.6778°
True anomaly
353.44085°
Mean anomaly
353.4796°
Eccentric anomaly
353.46024°
Mean motion
3.58719 °/min
Orbital period
100.36 mins
BSTAR
0.0014879
Loading maneuver chart data...
Computing Atmospheric mass density...
Loading historical data...
Loading historical data...
Loading historical data...
Loading historical data...
Loading historical data...
Loading historical data...
Loading historical data...

Documentation

Showing up to 5 results
|